Terminal Aerodrome Forecast
Issued by NWS

Home | Current Version | Previous Version | Text Only | Print | Product List | Glossary On
Versions: 1 2 3 4 5 6 7 8 9 10 11 12 13 14 15 16 17 18 19 20 21 22 23 24 25 26 27
000
FTUS44 KFWD 212332
TAFAFW
TAF
KAFW 212332Z 2200/2224 17012KT P6SM FEW050 SCT250
     FM221000 17011KT P6SM BKN015
     FM221400 18013KT P6SM BKN025
     FM221600 16013KT P6SM SCT040=

USA.gov is the U.S. government's official web portal to all federal, state and local government web resources and services.